This demonstration page uses our WeatherBlox Daily Observations layout. Learn more.

Left ArrowRight Arrow

39.92423, -83.80882

Hourly Observations for July 2, 2021

Temp ( °F °C ) Dew Point ( °F °C ) Humidity (%) Winds ( mph kmh ) Pressure ( in mb ) Visibility ( mi km ) Precip ( " mm )
12:56 am 00:56 Mostly Cloudy 66 19 N/A N/A NNE 7 11 29.93 1014 10 16 N/A
1:56 am 01:56 Clear 64 18 N/A N/A NE 7 11 29.93 1014 10 16 N/A
2:56 am 02:56 Clear 64 17.8 64 17.8 100 100 NE 13 20 29.93 1014 10 16 N/A
3:56 am 03:56 Clear 62 16.7 62 16.7 100 100 NE 10 17 29.94 1014 10 16 N/A
4:56 am 04:56 Clear 61 16.1 61 16.1 100 100 NNE 13 20 29.95 1014 10 16 N/A
5:56 am 05:56 Clear 59 15 59 15 100 100 NNE 10 17 29.96 1015 10 16 N/A
6:56 am 06:56 Mostly Cloudy 60 15.6 60 15.6 100 100 NNE 8 13 29.98 1015 10 16 N/A
7:56 am 07:56 Sunny 62 16.7 59 15 90 90 N 9 15 30.00 1016 10 16 N/A
8:56 am 08:56 Mostly Sunny 61 16.1 59 15 93 93 N 10 17 30.01 1016 10 16 N/A
9:53 am 09:53 Mostly Cloudy 66 19 57 14 73 73 NNW 14 22 30.00 1016 10 16 N/A
9:56 am 09:56 Mostly Cloudy 66 18.9 57 13.9 73 73 NNW 14 22 30.01 1016 10 16 N/A
10:13 am 10:13 Partly Cloudy 66 19 55 13 68 68 N 12 19 30.00 1016 10 16 N/A
10:56 am 10:56 Mostly Cloudy 67 19.4 56 13.3 68 68 NNW 9 15 30.01 1016 10 16 N/A
11:56 am 11:56 Mostly Cloudy 69 20.6 55 12.8 61 61 N 14 22 30.02 1017 10 16 N/A
12:56 pm 12:56 Cloudy 68 20 55 12.8 63 63 N 14 22 30.02 1017 10 16 N/A
1:56 pm 13:56 Mostly Cloudy 72 22.2 55 12.8 55 55 N 13 20 30.01 1016 10 16 N/A
2:56 pm 14:56 Partly Cloudy 72 22.2 55 12.8 55 55 NW 14 22 30.00 1016 10 16 N/A
3:56 pm 15:56 Mostly Cloudy 73 22.8 56 13.3 55 55 NW 9 15 29.98 1015 10 16 N/A
4:56 pm 16:56 Mostly Sunny 74 23.3 55 12.8 52 52 NNW 10 17 29.98 1015 10 16 N/A
5:56 pm 17:56 Mostly Cloudy 74 23.3 55 12.8 52 52 NNW 15 24 29.97 1015 10 16 N/A
6:56 pm 18:56 Sunny 73 22.8 55 12.8 53 53 NNW 13 20 29.97 1015 10 16 N/A
7:56 pm 19:56 Mostly Sunny 72 22.2 56 13.3 57 57 NNW 9 15 29.97 1015 10 16 N/A
8:56 pm 20:56 Partly Cloudy 67 19.4 57 13.9 71 71 NNW 5 7 29.98 1015 10 16 N/A
9:56 pm 21:56 Cloudy 66 18.9 58 14.4 75 75 N 3 6 29.99 1016 10 16 N/A
10:56 pm 22:56 Mostly Clear 63 17.2 62 16.7 97 97 N N/A 29.99 1016 10 16 N/A
11:56 pm 23:56 Clear 61 16.1 61 16.1 100 100 WNW 5 7 29.98 1015 10 16 N/A

Powered by AerisWeather